{"data":{"norad_id":38759,"intl_designator":"2012-048B","name":"SMDC ONE 1.2","alt_names":[],"object_type":"PAYLOAD","status":"ACTIVE","operator":null,"country":"US","launch_date":"2012-09-13","launch_site_code":"AFWTR","launch_vehicle":null,"mission":null,"orbit_class":"UNKNOWN","rcs_meters":null,"size_class":null,"mass_kg":null,"dimensions":null,"purposes":[],"wikipedia_slug":null,"has_3d_model":false,"image_url":null,"decayed_at":null,"tle_current":{"epoch":"2026-09-19T21:44:27.760704Z","epoch_age_seconds":80565,"freshness":"FRESH","line1":"1 38759U 12048B   26262.90587686  .00004775  00000+0  19872-3 0  9996","line2":"2 38759  64.6557 228.0438 0077588 143.6144 217.0293 15.22346287130561","mean_motion":15.22346287,"eccentricity":0.0077588,"inclination_deg":64.6557,"raan_deg":228.0438,"arg_perigee_deg":143.6144,"mean_anomaly_deg":217.0293,"bstar":0.00019872,"rev_number":13056,"period_min":94.590830765431,"perigee_km":445.40908479792,"apogee_km":552.12210853193,"semimajor_km":6876.9025966649,"source":"CELESTRAK","updated_at":"2026-09-20T09:00:13.864121Z"}}}